Location: Hopville
(44.8032°N, 123.1329°W)
Time: 04:05:25
(UTC+00:00)

NOSS 3-2 (C) - Pass Details

Date: 24 January 2021
Orbit: 788 x 1424 km, 63.4° (Epoch: 25 February)

Event Time Altitude Azimuth Distance (km) Brightness Sun altitude
Rises 14:31:23 0° 212° (SSW) 3,319 6.1 -12.2°
Reaches altitude 10° 14:33:41 10° 211° (SSW) 2,431 5.4 -11.8°
Maximum altitude 14:39:16 81° 126° (SE) 916 3.5 -10.8°
Drops below altitude 10° 14:45:42 10° 39° (NE) 2,788 6.2 -9.7°
Sets 14:48:30 0° 39° (NE) 3,842 6.9 -9.2°
